Preview of NWS' New Version of Forecast
This preview is not operational and should not be used for support decisions.

Regional Weather Roundup (RWR)

Issued by National Weather Service (NWS)

                            
000
ASUS43 KMKX 200511
RWRWI 

WISCONSIN REGIONAL WEATHER ROUNDUP
NATIONAL WEATHER SERVICE MILWAUKEE/SULLIVAN WI
1200 AM CDT TUE AUG 20 2019

NOTE: "FAIR" INDICATES FEW OR NO CLOUDS BELOW 12,000 FEET WITH NO
SIGNIFICANT WEATHER AND/OR OBSTRUCTIONS TO VISIBILITY.

WIZ001-002-006>008-014>016-023>028-200600-
NORTHWEST WISCONSIN
  
CITY           SKY/WX    TMP DP  RH WIND       PRES   REMARKS
SUPERIOR ARPT  FAIR      61  56  85 CALM      29.97R                  
ASHLAND        FAIR      64  56  75 SW8       29.99R                  
HAYWARD        FAIR      56  54  93 CALM      30.03R                  
SIREN          FAIR      64  58  79 S5        30.01S                  
CUMBERLAND     FAIR      59  54  82 CALM      30.03S                  
RICE LAKE      FAIR      58  42  56 CALM      30.04S                  
CHETEK         FAIR      58  58 100 CALM      30.03S                  
LADYSMITH      FAIR      59  58  98 CALM      30.05S                  
EAU CLAIRE     FAIR      58  56  93 CALM      30.02S                  
MENOMONIE      FAIR      57  55  94 CALM      30.03S                  
NEW RICHMOND   FAIR      61  58  88 CALM      30.02S                  
OSCEOLA        FAIR      62  61  96 CALM      30.04S                  
$$
 
WIZ003>005-009-010-017-018-200600-
NORTH CENTRAL WISCONSIN
  
CITY           SKY/WX    TMP DP  RH WIND       PRES   REMARKS
MANITOWISH WTR FAIR      54  54 100 CALM      30.04S                  
ARBOR VITAE    FAIR      57  53  86 CALM      30.05R                  
WOODRUFF       FAIR      57  53  86 CALM      30.05R                  
RHINELANDER    FAIR      57  53  86 W7        30.05S                  
EAGLE RIVER    FAIR      53  53  98 CALM      30.04S                  
LAND O LAKES   FAIR      52  50  94 CALM      30.05S                  
PHILLIPS       FAIR      55  55 100 CALM      30.04S                  
TOMAHAWK       FAIR      50  49  97 CALM      30.06R                  
MEDFORD        FAIR      54  53  97 CALM      30.05S                  
MERRILL        FAIR      53  53 100 CALM      30.05S                  
$$
 
WIZ029-030-035-036-043>047-200600-
CENTRAL WISCONSIN
  
CITY           SKY/WX    TMP DP  RH WIND       PRES   REMARKS
WAUSAU         FAIR      57  55  93 CALM      30.03R                  
MOSINEE        FAIR      57  57 100 CALM      30.06R                  
MARSHFIELD     FAIR      59  55  87 CALM      30.04S                  
STEVENS POINT  FAIR      53  53 100 CALM      30.05R                  
WAUPACA        FAIR      59  57  95 CALM      30.04R                  
WAUTOMA        FAIR      57  56  96 CALM      30.05R                  
WISC RAPIDS    FAIR      58  56  93 CALM      30.05R                  
CAMP DOUGLAS   FAIR      55  55 100 CALM      30.04S FOG              
$$
 
WIZ011>013-019>022-031-037>040-048>050-200600-
NORTHEAST WISCONSIN
  
CITY           SKY/WX    TMP DP  RH WIND       PRES   REMARKS
ANTIGO         FAIR      52  51  96 CALM      30.05S                  
SHAWANO        FAIR      60  58  93 CALM      30.03R                  
OCONTO         FAIR      55  53  94 CALM      30.02R                  
STURGEON BAY   FAIR      62  57  83 S6        30.03R                  
GREEN BAY      FAIR      61  58  90 CALM      30.03R                  
MANITOWOC      FAIR      60  59  96 CALM      30.04R                  
APPLETON       FAIR      63  52  67 SW3       30.03R                  
CLINTONVILLE   FAIR      56  52  87 CALM      30.03S                  
OSHKOSH        FAIR      62  57  83 CALM      30.03R                  
$$
 
WIZ032>034-041-042-053>061-200600-
SOUTHWEST WISCONSIN
  
CITY           SKY/WX    TMP DP  RH WIND       PRES   REMARKS
LA CROSSE      FAIR      64  59  83 E5        30.02S                  
SPARTA         FAIR      53  52  97 CALM      30.05S                  
VIROQUA        FAIR      62  60  94 E5        30.05S                  
BOSCOBEL       FAIR      59  58  96 CALM      30.04R FOG              
PRAIRIE DU CHI FAIR      63  61  94 E3        30.03R                  
PLATTEVILLE    FAIR      64  64 100 CALM      30.04S                  
$$

WIZ056-057-062-063-064-067-068-200600-
SOUTH CENTRAL WISCONSIN
  
CITY           SKY/WX    TMP DP  RH WIND       PRES   REMARKS
REEDSBURG      FAIR      60  60 100 CALM      30.05R                  
BARABOO/DELLS  FAIR      60  58  92 CALM      30.05S                  
LONE ROCK      FAIR      60  59  96 CALM      30.04R                  
MINERAL POINT    N/A     66  63  88 CALM      30.05S                  
MADISON        FAIR      62  61  96 CALM      30.04R                  
MIDDLETON      FAIR      62  27  26 CALM      30.05S                  
WATERTOWN      FAIR      63  63 100 CALM      30.04R                  
MONROE         FAIR      72  64  76 CALM      30.04S                  
JANESVILLE     FAIR      66  66 100 NW3       30.02S FOG              
$$
 
WIZ051-052-058>065-066-070>072-200600-
SOUTHEAST WISCONSIN
  
CITY           SKY/WX    TMP DP  RH WIND       PRES   REMARKS
MILWAUKEE      FAIR      72  66  81 CALM      30.02S                  
WAUKESHA       FAIR      63  61  94 CALM      30.04F                  
MILWAUKEE/TIMM FAIR      64  61  88 CALM      30.04S                  
RACINE         FAIR      71  68  90 CALM      30.03F                  
KENOSHA        MOCLDY    72  70  93 CALM      30.02F                  
FOND DU LAC    FAIR      61  58  90 S3        30.04R                  
SHEBOYGAN      FAIR      60  58  92 CALM      30.04R FOG              
WEST BEND      FAIR      61  61 100 CALM      30.05R                  
JUNEAU         FAIR      62  60  95 CALM      30.06R                  
$$

LSZ147-162-200600-
LAKE SUPERIOR
  
STATION/POSITION TIME  TEMP    WIND        PRES    WAVE
                       AIR SEA DIR/SP/G            HT/PER
                 (UTC) (F)     (DEG/KT/KT) (MB)    (FT/S)
W MID LAKE BUOY  0450   67 63  230/ 17/ 19 1012.7R   2/ 4
DEVILS ISLAND    0400   71     220/ 14/ 18 1013.5R
SAXON HARBOR     0430   69     190/  7/ 11 1014.6R
$$
 
LMZ867-665-643>646-200600-
LAKE MICHIGAN
  
STATION/POSITION TIME  TEMP    WIND        PRES    WAVE
                       AIR SEA DIR/SP/G            HT/PER
                 (UTC) (F)     (DEG/KT/KT) (MB)    (FT/S)
S GREEN BAY BUOY 0400   76 71  200/  6/  8 1016.4
N MID LAKE BUOY  0450   70 70  190/ 14/ 16 1016.3R   1/ 2
NORTHPORT PIER   0440   65     150/  2/  3 1015.9R
KEWAUNEE LAKESHO 0424   65     290/  2/  5 1016.0
SHEBOYGAN LAKESH 0500   70     250/  3/  3 1017.1R
PORT WASHINGTON  0440   69     300/  1/  2 1017.9R
S MID LAKE BUOY  0450   74 75  110/  6/  6 1016.6F   0
KENOSHA   LAKESH 0500   74     170/  4/  4 1016.3
$$

TC  - TEMPERATURE IN CELSIUS
VSB - VISIBILITY IN STATUTE MILES
WCI - WIND CHILL INDEX
HX  - HEAT INDEX